Location: Hancock Field Station
(44.9202°N, 120.4259°W)
Time: 01:42:33
(UTC-07:00)

Nadezhda 4 Rocket - Visible Passes

Search period start: 27 September 2016 00:00
Search period end: 07 October 2016 00:00
Orbit: 951 x 991 km, 82.9° (Epoch: 26 September)

Date Brightness Start Highest point End Pass type
(mag) Time Alt. Az. Time Alt. Az. Time Alt. Az.
27 Sep 4.0 19:57:58 10° N 20:04:12 61° ENE 20:10:20 10° SSE visible
27 Sep 6.1 21:44:15 10° NW 21:48:56 22° W 21:53:34 10° SW visible
28 Sep 4.1 20:22:02 10° N 20:28:20 81° W 20:34:32 10° S visible
28 Sep 6.7 22:10:04 10° NW 22:12:31 12° WNW 22:14:58 10° W visible
29 Sep 4.9 20:46:21 10° NNW 20:52:19 47° W 20:58:12 10° SSW visible
30 Sep 4.2 19:25:06 10° N 19:31:11 49° ENE 19:37:09 10° SSE visible
30 Sep 5.9 21:10:58 10° NNW 21:16:08 28° W 21:21:14 10° SW visible
01 Oct 3.9 19:49:04 10° N 19:55:23 83° E 20:01:35 10° S visible
01 Oct 6.6 21:36:13 10° NW 21:39:47 16° W 21:43:19 10° WSW visible
02 Oct 4.6 20:13:17 10° NNW 20:19:25 59° W 20:25:28 10° S visible
03 Oct 5.6 20:37:46 10° NNW 20:43:18 34° W 20:48:46 10° SSW visible
04 Oct 4.0 19:16:09 10° N 19:22:24 68° E 19:28:33 10° SSE visible
04 Oct 6.5 21:02:42 10° NW 21:07:01 20° W 21:11:18 10° SW visible
05 Oct 4.3 19:40:16 10° NNW 19:46:31 73° W 19:52:38 10° S visible
05 Oct 7.0 21:29:12 10° WNW 21:30:34 11° WNW 21:31:56 10° W visible
06 Oct 5.3 20:04:38 10° NNW 20:10:27 42° W 20:16:11 10° SSW visible
